Location: *
(1.3500°S, 147.5000°W)
Time: 13:53:48
(UTC+00:00)

SWIFT - Pass Details

Date: 07 April 2020
Orbit: 545 x 560 km, 20.6° (Epoch: 05 June)

Event Time Altitude Azimuth Distance (km) Brightness Sun altitude
Rises 05:12:52 0° 227° (SW) 2,705 6.4 -20.2°
Reaches altitude 10° 05:15:39 10° 209° (SSW) 1,814 5.2 -20.9°
Enters shadow 05:17:57 19° 177° (S) 1,356 4.2 -21.5°
